[[{"header":{"parameterUnit":"m.s-1","parameterCategory":1,"la1":30.2991,"la2":30.254,"lo1":-89.0895,"lo2":-89.0444,"dy":0.0017,"dx":0.0017,"nx":28,"ny":28,"refTime":"2024-03-18T09:00:00:Z","depth":0,"parameterNumber":2,"parameterNumberName":"U-component_of_WINDS"},"data":[0,0,0,0,0,0,0,0,0,0,0,0,0,0,0,0,0,0,0,0,0,0,0,0,0,0,0,0,0,0,0,0,0,0,0,0,0,0,0,0,0,0,0,0,0,0,0,0,0,0,0,0,0,0,0,0,0,0,-0.2533,-0.2534,0,-0.26,-0.2601,-0.2602,-0.2599,-0.2598,-0.2597,-0.2596,-0.2668,-0.267,-0.2673,0,0,0,0,0,0,0,0,0,0,0,0,0,-0.2406,-0.2408,-0.2533,-0.2534,-0.2535,-0.26,-0.2601,-0.2602,-0.2599,-0.2598,-0.2597,-0.2596,-0.2667,-0.267,-0.2673,0,0,0,0,0,0,0,0,0,0,0,0,0,-0.2466,-0.2409,-0.2533,-0.2542,-0.2543,-0.26,-0.2601,-0.2602,-0.26,-0.2598,-0.2597,-0.2596,-0.2666,-0.267,-0.2674,-0.2728,0,0,-0.2687,-0.2688,0,0,0,0,0,0,0,0,-0.2463,-0.2471,-0.2539,-0.2541,-0.2543,-0.259,-0.2582,-0.2644,-0.26,-0.2578,-0.2596,-0.2595,-0.2643,-0.2649,-0.2665,-0.2731,-0.2734,-0.2687,-0.2689,-0.2691,-0.2692,0,0,0,0,0,0,0,-0.2458,-0.2468,-0.256,-0.2541,-0.2543,-0.2543,-0.255,-0.2594,-0.2618,-0.258,-0.258,-0.2588,-0.2644,-0.2661,-0.2666,-0.2735,-0.2687,-0.2691,-0.2693,-0.2695,-0.2848,-0.285,0,0,0,0,0,0,-0.2452,-0.2464,-0.2558,-0.2562,-0.2498,-0.2546,-0.2554,-0.2576,-0.2617,-0.2622,-0.2589,-0.2587,-0.2654,-0.2662,-0.2669,-0.2735,-0.2691,-0.2695,-0.2698,-0.2847,-0.2849,-0.285,0,0,0,0,0,0,-0.2449,-0.246,-0.2555,-0.2513,-0.2525,-0.255,-0.2575,-0.2578,-0.2595,-0.2624,-0.2629,-0.2602,-0.2654,-0.2663,-0.2713,-0.2737,-0.2697,-0.2701,-0.2845,-0.2847,-0.285,-0.2867,0,0,0,0,0,0,-0.2446,-0.2459,-0.248,-0.2513,-0.2527,-0.2597,-0.2576,-0.2581,-0.2602,-0.2601,-0.2637,-0.2642,-0.2653,-0.2707,-0.2717,-0.2742,-0.2704,-0.2843,-0.2846,-0.2849,-0.2864,-0.287,-0.2874,0,0,0,0,0,-0.2441,-0.2483,-0.2481,-0.2492,-0.2553,-0.2599,-0.2607,-0.2618,-0.2604,-0.2625,-0.2643,-0.2641,-0.2732,-0.2712,-0.2723,-0.275,-0.2841,-0.2845,-0.2849,-0.2862,-0.2869,-0.2874,0,0,0,0,0,0,-0.2453,-0.2487,-0.2486,-0.2539,-0.2566,-0.2598,-0.2625,-0.2624,-0.2656,-0.2654,-0.2667,-0.2676,-0.2725,-0.2743,-0.2719,-0.2804,-0.2785,-0.2791,-0.2792,-0.2798,-0.2803,-0.2798,-0.2707,0,0,0,0,0,-0.2461,-0.2495,-0.2523,-0.2568,-0.2581,-0.2601,-0.2621,-0.2627,-0.2656,-0.2667,-0.2689,-0.2718,-0.2753,-0.2776,-0.281,-0.2866,-0.2874,-0.289,-0.2895,-0.2899,-0.2905,-0.2936,-0.2943,-0.2862,-0.2862,-0.2862,0,0,-0.248,-0.2503,-0.2524,-0.2571,-0.2592,-0.2627,-0.261,-0.2648,-0.2675,-0.2673,-0.2722,-0.2738,-0.2771,-0.2824,-0.2849,-0.284,-0.2928,-0.2903,-0.2906,-0.291,-0.294,-0.2948,-0.2955,-0.2865,-0.2864,-0.2864,0,0,-0.2532,-0.2552,-0.2592,-0.2613,-0.2645,-0.2657,-0.2667,-0.2699,-0.271,-0.2758,-0.2757,-0.2789,-0.2849,-0.2872,-0.2892,-0.2951,-0.295,-0.2961,-0.2988,-0.3018,-0.3025,-0.303,-0.3052,-0.306,-0.2967,-0.2967,-0.2967,0,-0.2552,-0.2604,-0.2612,-0.265,-0.2671,-0.267,-0.271,-0.273,-0.2772,-0.2787,-0.2776,-0.2851,-0.2873,-0.2932,-0.2946,-0.2961,-0.2973,-0.2959,-0.3023,-0.3029,-0.3034,-0.3055,-0.3063,-0.2968,-0.2968,-0.2968,-0.2968,0,-0.2627,-0.2662,-0.269,-0.273,-0.2753,-0.2792,-0.2807,-0.2831,-0.2834,-0.2848,-0.2897,-0.2922,-0.2961,-0.2975,-0.2979,-0.3034,-0.3028,-0.302,-0.3001,-0.3043,-0.3063,-0.3071,-0.297,-0.2969,-0.2969,-0.2969,0,0,-0.2691,-0.2732,-0.2743,-0.276,-0.2794,-0.2823,-0.2861,-0.2898,-0.2918,-0.2946,-0.298,-0.303,-0.3022,-0.3044,-0.3051,-0.3077,-0.3123,-0.3065,-0.3066,-0.3076,-0.3185,-0.3193,-0.3202,-0.3121,-0.3123,-0.3124,-0.3183,0,-0.2747,-0.2815,-0.2823,-0.2884,-0.2918,-0.2916,-0.2949,-0.2974,-0.2987,-0.3018,-0.3033,-0.3069,-0.3055,-0.3068,-0.3094,-0.3112,-0.3145,-0.3107,-0.3154,-0.3155,-0.3147,-0.3212,-0.322,-0.3275,-0.3191,-0.3192,-0.3193,0,-0.2823,-0.2852,-0.2916,-0.2945,-0.2959,-0.2989,-0.3024,-0.3053,-0.3081,-0.3088,-0.3112,-0.3115,-0.3155,-0.3133,-0.3189,-0.3163,-0.3182,-0.3194,-0.3196,-0.3203,-0.3178,-0.3222,-0.3293,-0.3302,-0.3205,-0.3204,-0.3204,0,-0.2865,-0.292,-0.2965,-0.298,-0.3015,-0.3036,-0.3051,-0.3078,-0.3099,-0.3129,-0.3143,-0.3177,-0.3197,-0.3223,-0.3235,-0.3218,-0.3291,-0.327,-0.33,-0.33,-0.3317,-0.3317,-0.3394,-0.3326,-0.3326,-0.3326,-0.3326,0,-0.2929,-0.2968,-0.2984,-0.3013,-0.3057,-0.3065,-0.3109,-0.3123,-0.3146,-0.3178,-0.3178,-0.3207,-0.322,-0.3252,-0.3261,-0.3307,-0.3315,-0.3323,-0.3326,-0.3325,-0.3324,-0.3339,-0.3336,-0.3328,-0.3328,-0.3327,-0.3327,0,-0.2984,-0.2996,-0.3046,-0.3073,-0.3081,-0.3113,-0.3137,-0.3164,-0.3176,-0.3215,-0.3225,-0.3244,-0.3281,-0.3295,-0.3341,-0.3347,-0.34,-0.3398,-0.339,-0.3392,-0.3421,-0.3419,-0.3513,-0.3526,-0.3448,-0.3449,-0.3449,0,-0.3025,-0.3055,-0.3085,-0.3106,-0.3122,-0.3155,-0.3176,-0.3185,-0.3207,-0.324,-0.3264,-0.33,-0.3331,-0.339,-0.3408,-0.3443,-0.3443,-0.3474,-0.3449,-0.3446,-0.3446,-0.3444,-0.3448,-0.3479,-0.348,-0.3481,-0.3481,0,-0.3097,-0.3101,-0.3131,-0.3164,-0.3189,-0.3215,-0.324,-0.3257,-0.327,-0.3295,-0.3332,-0.3355,-0.3401,-0.3437,-0.3472,-0.3489,-0.3488,-0.3488,-0.3497,-0.3498,-0.3492,-0.3497,-0.3405,-0.3487,-0.3486,-0.3486,-0.3486,-0.3485,-0.3147,-0.3174,-0.3199,-0.3233,-0.3252,-0.3276,-0.3303,-0.3317,-0.3348,-0.3385,-0.3388,-0.3429,-0.3455,-0.3502,-0.352,-0.3552,-0.3544,-0.3556,-0.356,-0.3564,-0.3566,-0.3485,-0.3558,-0.3558,-0.3558,-0.3557,-0.3557,0,-0.322,-0.3236,-0.3266,-0.3301,-0.3328,-0.3322,-0.3349,-0.3372,-0.3407,-0.3431,-0.346,-0.3503,-0.3538,-0.3558,-0.3593,-0.3615,-0.3615,-0.3624,-0.3624,-0.3628,-0.3571,-0.356,-0.3623,-0.3623,-0.3623,-0.3623,-0.3623,-0.3623,-0.3262,-0.3306,-0.3313,-0.3367,-0.3383,-0.3422,-0.3438,-0.3459,-0.3479,-0.3526,-0.3555,-0.3567,-0.359,-0.3626,-0.3658,-0.3663,-0.3677,-0.3687,-0.3691,-0.3638,-0.3632,-0.3625,-0.3615,-0.3689,-0.3689,-0.3746,-0.3746,-0.3746]},{"header":{"parameterUnit":"m.s-1","parameterCategory":1,"la1":30.2991,"la2":30.254,"lo1":-89.0895,"lo2":-89.0444,"dy":0.0017,"dx":0.0017,"nx":28,"ny":28,"refTime":"2024-03-18T09:00:00:Z","depth":0,"parameterNumber":3,"parameterNumberName":"V-component_of_WINDS"},"data":[0,0,0,0,0,0,0,0,0,0,0,0,0,0,0,0,0,0,0,0,0,0,0,0,0,0,0,0,0,0,0,0,0,0,0,0,0,0,0,0,0,0,0,0,0,0,0,0,0,0,0,0,0,0,0,0,0,0,-4.8788,-4.8789,0,-4.8904,-4.8905,-4.8907,-4.8868,-4.8866,-4.8863,-4.8861,-4.8978,-4.8983,-4.8989,0,0,0,0,0,0,0,0,0,0,0,0,0,-4.8533,-4.8537,-4.8788,-4.879,-4.8791,-4.8904,-4.8905,-4.8907,-4.8869,-4.8865,-4.8862,-4.886,-4.8976,-4.8983,-4.8989,0,0,0,0,0,0,0,0,0,0,0,0,0,-4.8646,-4.8539,-4.8788,-4.8785,-4.8786,-4.8904,-4.8906,-4.8907,-4.8869,-4.8865,-4.8862,-4.8858,-4.8974,-4.8982,-4.899,-4.9116,0,0,-4.9015,-4.9019,0,0,0,0,0,0,0,0,-4.8639,-4.8655,-4.8784,-4.8786,-4.8787,-4.8868,-4.8858,-4.8977,-4.887,-4.8838,-4.8861,-4.8856,-4.8944,-4.8955,-4.8985,-4.9122,-4.9127,-4.9016,-4.9021,-4.9024,-4.9027,0,0,0,0,0,0,0,-4.8631,-4.865,-4.8834,-4.8786,-4.8788,-4.8778,-4.879,-4.8881,-4.8911,-4.884,-4.8838,-4.8852,-4.8944,-4.8977,-4.8987,-4.9128,-4.9016,-4.9023,-4.9028,-4.9031,-4.9376,-4.938,0,0,0,0,0,0,-4.8623,-4.8643,-4.883,-4.8837,-4.8702,-4.8786,-4.8799,-4.8846,-4.891,-4.8916,-4.8855,-4.885,-4.8965,-4.8978,-4.8991,-4.9144,-4.9024,-4.9032,-4.9037,-4.9371,-4.9377,-4.9381,0,0,0,0,0,0,-4.8618,-4.864,-4.8826,-4.874,-4.8763,-4.8794,-4.8847,-4.885,-4.8882,-4.8921,-4.8926,-4.8883,-4.8962,-4.898,-4.9086,-4.9147,-4.9036,-4.9043,-4.9366,-4.9373,-4.9379,-4.945,0,0,0,0,0,0,-4.861,-4.8638,-4.8687,-4.8741,-4.8767,-4.8919,-4.8851,-4.8855,-4.8897,-4.8891,-4.8948,-4.8954,-4.8961,-4.9074,-4.9094,-4.9156,-4.9049,-4.9361,-4.9369,-4.9377,-4.9442,-4.9458,-4.9471,0,0,0,0,0,-4.8601,-4.8701,-4.8689,-4.8712,-4.8829,-4.8922,-4.8937,-4.8943,-4.8902,-4.8951,-4.8976,-4.8952,-4.9137,-4.9085,-4.9107,-4.9173,-4.9357,-4.9367,-4.9376,-4.9435,-4.9455,-4.9471,0,0,0,0,0,0,-4.8652,-4.8708,-4.8696,-4.8816,-4.8865,-4.8916,-4.8977,-4.8963,-4.9024,-4.9016,-4.902,-4.9033,-4.9142,-4.9168,-4.9109,-4.9299,-4.9241,-4.9256,-4.9278,-4.9297,-4.9311,-4.9303,-4.9056,0,0,0,0,0,-4.8678,-4.875,-4.8794,-4.8897,-4.8922,-4.8946,-4.8987,-4.8987,-4.9037,-4.9057,-4.909,-4.9139,-4.9208,-4.9254,-4.932,-4.9445,-4.9458,-4.9502,-4.9516,-4.9528,-4.9541,-4.961,-4.963,-4.9412,-4.9412,-4.9412,0,0,-4.8731,-4.877,-4.8815,-4.8908,-4.8946,-4.902,-4.8963,-4.9044,-4.9099,-4.9069,-4.9172,-4.9198,-4.9253,-4.937,-4.9423,-4.9395,-4.9604,-4.954,-4.9549,-4.9556,-4.9622,-4.9642,-4.9661,-4.9419,-4.9418,-4.9417,0,0,-4.8865,-4.8902,-4.8992,-4.9031,-4.9089,-4.9105,-4.9126,-4.918,-4.9196,-4.9299,-4.9279,-4.9344,-4.9463,-4.9504,-4.954,-4.9692,-4.9673,-4.9713,-4.9789,-4.9856,-4.9873,-4.9889,-4.9943,-4.9963,-4.9725,-4.9725,-4.9725,0,-4.8924,-4.9035,-4.904,-4.9123,-4.9164,-4.9142,-4.9233,-4.9271,-4.9347,-4.9376,-4.9344,-4.9494,-4.9529,-4.9656,-4.9693,-4.9722,-4.9747,-4.9706,-4.9871,-4.9886,-4.99,-4.9952,-4.9973,-4.973,-4.9729,-4.9729,-4.9728,0,-4.9105,-4.9182,-4.9247,-4.9323,-4.9372,-4.9458,-4.9476,-4.9525,-4.9521,-4.954,-4.9646,-4.9688,-4.9762,-4.9792,-4.9789,-4.9919,-4.9899,-4.9869,-4.9811,-4.9926,-4.9975,-4.9995,-4.9736,-4.9735,-4.9733,-4.9732,0,0,-4.9274,-4.9352,-4.9376,-4.941,-4.9473,-4.9533,-4.9619,-4.9692,-4.9735,-4.9788,-4.986,-4.9962,-4.9935,-4.9976,-4.9977,-5.0036,-5.0154,-4.9998,-5.0,-5.0026,-5.0301,-5.0324,-5.0347,-5.0142,-5.0146,-5.0149,-5.0296,0,-4.9415,-4.9566,-4.9573,-4.971,-4.9782,-4.9763,-4.9837,-4.9884,-4.9904,-4.9968,-4.9989,-5.0062,-5.002,-5.0045,-5.0102,-5.0128,-5.0209,-5.0117,-5.0209,-5.0212,-5.0197,-5.0372,-5.0397,-5.0534,-5.0315,-5.0319,-5.0321,0,-4.9599,-4.9659,-4.9804,-4.9858,-4.9888,-4.9955,-5.0024,-5.0085,-5.0138,-5.0148,-5.0195,-5.0188,-5.0275,-5.0214,-5.0335,-5.0272,-5.031,-5.0328,-5.0334,-5.0343,-5.0274,-5.0387,-5.0578,-5.0599,-5.0351,-5.0349,-5.0347,0,-4.9709,-4.9826,-4.9929,-4.9959,-5.0024,-5.0071,-5.0101,-5.015,-5.0194,-5.0253,-5.0282,-5.0351,-5.0389,-5.0442,-5.0453,-5.0408,-5.0575,-5.0514,-5.0586,-5.0586,-5.0623,-5.062,-5.0823,-5.0646,-5.0646,-5.0646,-5.0645,0,-4.9865,-4.9955,-4.9979,-5.0042,-5.0142,-5.0149,-5.0248,-5.0274,-5.0318,-5.0385,-5.0372,-5.0436,-5.0447,-5.0513,-5.0523,-5.0622,-5.0639,-5.065,-5.0651,-5.0651,-5.065,-5.0677,-5.0668,-5.0651,-5.065,-5.0649,-5.0648,0,-5.0006,-5.0025,-5.0136,-5.0189,-5.0204,-5.0275,-5.0321,-5.0381,-5.04,-5.0485,-5.0506,-5.0535,-5.0612,-5.0629,-5.0721,-5.0727,-5.0845,-5.0837,-5.0828,-5.0827,-5.0899,-5.0892,-5.1126,-5.1157,-5.0959,-5.0961,-5.0963,0,-5.0104,-5.0173,-5.0234,-5.0278,-5.031,-5.0382,-5.0427,-5.0437,-5.0485,-5.0551,-5.0603,-5.0679,-5.074,-5.0865,-5.0894,-5.0964,-5.0958,-5.1035,-5.0968,-5.0966,-5.096,-5.0956,-5.0963,-5.1048,-5.105,-5.1052,-5.1053,0,-5.0278,-5.0285,-5.0351,-5.0421,-5.0475,-5.0531,-5.0584,-5.0621,-5.0638,-5.0692,-5.0771,-5.0819,-5.0913,-5.0989,-5.1059,-5.1088,-5.1074,-5.1074,-5.1094,-5.1096,-5.1088,-5.1094,-5.0863,-5.1069,-5.1067,-5.1066,-5.1065,-5.1064,-5.0401,-5.0462,-5.0514,-5.0589,-5.0629,-5.0679,-5.0739,-5.0766,-5.0832,-5.091,-5.0912,-5.0998,-5.105,-5.1143,-5.1177,-5.1245,-5.1221,-5.125,-5.1258,-5.1265,-5.1272,-5.1077,-5.1257,-5.1257,-5.1257,-5.1256,-5.1256,0,-5.0575,-5.0608,-5.0676,-5.0751,-5.081,-5.0791,-5.0849,-5.0899,-5.0976,-5.1025,-5.1087,-5.1178,-5.1252,-5.1287,-5.136,-5.1407,-5.1403,-5.1426,-5.1423,-5.143,-5.1289,-5.1264,-5.1429,-5.1429,-5.1429,-5.1429,-5.1429,-5.1429,-5.0672,-5.0774,-5.0787,-5.0909,-5.0941,-5.1027,-5.1062,-5.1108,-5.1147,-5.1251,-5.1312,-5.1335,-5.1379,-5.1455,-5.1522,-5.153,-5.1558,-5.1585,-5.159,-5.1458,-5.144,-5.1423,-5.14,-5.1591,-5.1591,-5.1726,-5.1727,-5.1728]}]]